Weather reports worldwide

Advertisment
Herstmonceux, United Kingdom (3882): temperature & dewpoint: 13.02.2018 14:00:00 - 19.02.2018 14:00:00 (GMT)Herstmonceux, United Kingdom (3882): temperature -20cm & temperature -100cm: 13.02.2018 14:00:00 - 19.02.2018 14:00:00 (GMT)Herstmonceux, United Kingdom (3882): wind speed & gusts: 13.02.2018 14:00:00 - 19.02.2018 14:00:00 (GMT)Herstmonceux, United Kingdom (3882): wind direction: 13.02.2018 14:00:00 - 19.02.2018 14:00:00 (GMT)Herstmonceux, United Kingdom (3882): reduced air pressure: 13.02.2018 14:00:00 - 19.02.2018 14:00:00 (GMT)Herstmonceux, United Kingdom (3882): visibility: 13.02.2018 14:00:00 - 19.02.2018 14:00:00 (GMT)Herstmonceux, United Kingdom (3882): sunshine duration: 13.02.2018 14:00:00 - 19.02.2018 14:00:00 (GMT)Herstmonceux, United Kingdom (3882): precipitation: 13.02.2018 14:00:00 - 19.02.2018 14:00:00 (GMT)
Date & Time tt [°C] td [°C] tt -20cm [°C] tt -100cm [°C] ff [km/h] ff [kn] fx [km/h] fx [kn] dd ppp [hPa] vv [km] sd [min] rr [mm]
19.02.2018 14:00:00 - - - - - - - - - - - - 0,0
19.02.2018 13:00:00 8,4 8,4 - - 8 4 - - W 1016,2 3,2 0 0,2
19.02.2018 12:00:00 7,9 7,9 - - 8 4 - - W 1016,9 3,1 0 0,0
19.02.2018 11:00:00 7,8 7,8 - - 5 3 - - WSW 1017,2 4,0 0 0,4
19.02.2018 10:00:00 7,3 7,3 - - 5 3 - - WSW 1017,5 2,1 0 0,0
19.02.2018 09:00:00 7,2 7,2 6,0 6,9 5 3 - - SW 1017,6 2,2 0 0,4
19.02.2018 08:00:00 7,0 7,0 - - 2 1 - - W 1017,8 2,0 0 0,0
19.02.2018 07:00:00 6,9 6,9 - - 4 2 - - WSW 1017,9 0,2 0 0,2
19.02.2018 06:00:00 6,9 6,9 - - 2 1 - - SSW 1017,9 0,2 0 0,2
19.02.2018 05:00:00 6,9 6,9 - - 2 1 - - SW 1017,9 0,2 0 0,0
19.02.2018 04:00:00 7,0 7,0 - - 2 1 - - SSW 1018,3 0,2 0 0,2
19.02.2018 03:00:00 7,0 6,9 - - 4 2 - - SSW 1018,6 0,2 0 0,0
19.02.2018 02:00:00 7,0 6,9 - - 4 2 - - S 1019,0 0,4 0 0,2
19.02.2018 01:00:00 6,9 6,8 - - 5 3 - - SSW 1019,4 0,3 0 0,2
19.02.2018 00:00:00 7,0 6,7 - - 8 4 - - SSW 1020,0 0,9 - 0,2
18.02.2018 23:00:00 6,9 6,1 - - 5 3 - - SW 1020,2 3,0 0 0,0
18.02.2018 22:00:00 6,8 5,6 - - 4 2 - - SW 1020,4 12 0 0,0
18.02.2018 21:00:00 6,5 4,8 - - 2 1 - - ESE 1020,7 9 0 0,0
18.02.2018 20:00:00 6,7 4,9 - - 4 2 - - ESE 1021,2 11 0 0,0
18.02.2018 19:00:00 6,6 4,7 - - 0 0 - - N 1021,5 12 0 0,0
18.02.2018 18:00:00 6,9 4,7 - - 4 2 - - E 1021,6 15 0 0,0
18.02.2018 17:00:00 7,1 4,9 - - 5 3 - - SE 1021,4 22 6 0,0
18.02.2018 16:00:00 7,9 5,0 - - 9 5 - - S 1021,8 19 42 0,0
18.02.2018 15:00:00 8,9 5,0 - - 8 4 - - SSE 1021,8 19 60 0,0
18.02.2018 14:00:00 9,5 4,5 - - 9 5 - - SSE 1021,8 20 54 0,0
18.02.2018 13:00:00 9,5 6,0 - - 9 5 - - S 1022,1 18 42 0,0
18.02.2018 12:00:00 9,0 5,0 - - 11 6 - - S 1022,6 19 60 0,0
18.02.2018 11:00:00 9,6 5,6 - - 9 5 - - S 1022,5 18 60 0,0
18.02.2018 10:00:00 8,5 6,6 - - 5 3 - - SSE 1022,9 20 60 0,0
18.02.2018 09:00:00 4,6 4,6 5,5 6,9 4 2 - - E 1023,0 8 30 0,0
18.02.2018 08:00:00 2,4 2,3 - - 4 2 - - ENE 1023,5 4,8 0 0,0
18.02.2018 07:00:00 2,1 1,8 - - 2 1 - - E 1023,3 6 0 0,0
18.02.2018 06:00:00 3,0 2,8 - - 2 1 - - SSE 1023,2 8 0 0,0
18.02.2018 05:00:00 3,2 3,0 - - 2 1 - - SSE 1023,3 12 0 0,0
18.02.2018 04:00:00 2,2 1,8 - - 4 2 - - ESE 1023,5 8 0 0,0
18.02.2018 03:00:00 3,5 3,4 - - 5 3 - - S 1023,8 12 0 0,0
18.02.2018 02:00:00 2,1 1,8 - - 4 2 - - ENE 1024,2 8 0 0,0
18.02.2018 01:00:00 1,7 1,2 - - 4 2 - - SE 1024,0 9 0 0,0
18.02.2018 00:00:00 1,4 1,1 - - 4 2 - - E 1024,3 9 - 0,0
17.02.2018 23:00:00 0,8 0,3 - - 4 2 - - E 1024,3 9 0 0,0
17.02.2018 22:00:00 0,3 -0,7 - - 4 2 - - ENE 1024,4 11 0 0,0
17.02.2018 21:00:00 1,6 0,7 - - 2 1 - - SSE 1024,3 11 0 0,0
17.02.2018 20:00:00 1,5 -0,1 - - 2 1 - - E 1024,2 14 0 0,0
17.02.2018 19:00:00 3,1 1,0 - - 2 1 - - S 1024,1 7 0 0,0
17.02.2018 18:00:00 4,4 0,0 - - 5 3 - - SW 1023,7 30 0 0,0
17.02.2018 17:00:00 6,8 -0,3 - - 8 4 - - WSW 1023,1 40 54 0,0
17.02.2018 16:00:00 9,0 1,0 - - 9 5 - - W 1022,8 30 60 0,0
17.02.2018 15:00:00 9,3 1,5 - - 9 5 - - S 1022,7 23 60 0,0
17.02.2018 14:00:00 10,7 0,2 - - 5 3 - - S 1022,5 21 60 0,0
17.02.2018 13:00:00 9,4 -0,6 - - 4 2 - - WNW 1022,7 40 60 0,0
17.02.2018 12:00:00 10,3 0,2 - - 4 2 - - ESE 1022,8 19 60 0,0
17.02.2018 11:00:00 9,3 1,9 - - 8 4 - - ESE 1022,7 26 60 0,0
17.02.2018 10:00:00 6,8 3,8 - - 5 3 - - ENE 1022,2 23 60 0,0
17.02.2018 09:00:00 3,2 3,1 5,7 6,9 5 3 - - ENE 1021,9 15 30 0,0
17.02.2018 08:00:00 1,3 1,1 - - 5 3 - - NE 1021,8 13 0 0,0
17.02.2018 07:00:00 1,3 1,0 - - 5 3 - - NE 1021,5 9 0 0,0
17.02.2018 06:00:00 2,0 1,6 - - 5 3 - - ENE 1021,3 11 0 0,0
17.02.2018 05:00:00 2,4 2,1 - - 5 3 - - NE 1021,3 11 0 0,0
17.02.2018 04:00:00 2,5 2,2 - - 5 3 - - NE 1021,2 11 0 0,0
17.02.2018 03:00:00 2,4 2,1 - - 4 2 - - ENE 1021,6 10 0 0,0
17.02.2018 02:00:00 2,6 2,4 - - 5 3 - - ENE 1022,2 12 0 0,0
17.02.2018 01:00:00 2,4 2,2 - - 5 3 - - ENE 1022,4 12 0 0,0
17.02.2018 00:00:00 2,3 2,0 - - 5 3 - - ENE 1022,7 8 - 0,0
16.02.2018 23:00:00 2,7 2,4 - - 5 3 - - NE 1023,4 8 0 0,0
16.02.2018 22:00:00 2,1 1,7 - - 4 2 - - ENE 1023,8 8 0 0,0
16.02.2018 21:00:00 2,1 1,5 - - 5 3 - - E 1024,1 9 0 0,0
16.02.2018 20:00:00 2,2 1,4 - - 5 3 - - ENE 1024,4 9 0 0,0
16.02.2018 19:00:00 3,2 2,0 - - 2 1 - - ESE 1025,3 11 0 0,0
16.02.2018 18:00:00 4,0 1,6 - - 4 2 - - SSW 1025,4 16 0 0,0
16.02.2018 17:00:00 6,3 1,6 - - 8 4 - - SSW 1025,1 29 30 0,0
16.02.2018 16:00:00 7,5 0,7 - - 5 3 - - SW 1024,9 30 36 0,0
16.02.2018 15:00:00 9,4 0,5 - - 9 5 - - SSW 1025,4 28 60 0,0
16.02.2018 14:00:00 9,4 -0,1 - - 9 5 - - SW 1025,7 40 60 0,0
16.02.2018 13:00:00 9,1 1,1 - - 9 5 - - WSW 1026,4 18 60 0,0
16.02.2018 12:00:00 8,6 2,9 - - 5 3 - - W 1026,9 24 60 0,0
16.02.2018 11:00:00 7,7 2,8 - - 5 3 - - WSW 1027,0 20 60 0,2
16.02.2018 10:00:00 5,7 2,6 - - 4 2 - - SSW 1026,9 15 60 0,0
16.02.2018 09:00:00 2,9 0,9 5,7 6,9 4 2 - - NNE 1026,5 18 30 0,0
16.02.2018 08:00:00 1,6 0,9 - - 5 3 - - NW 1025,9 20 0 0,0
16.02.2018 07:00:00 -0,4 -0,8 - - 4 2 - - WNW 1025,1 17 0 0,0
16.02.2018 06:00:00 -0,6 -1,3 - - 4 2 - - WSW 1024,7 12 0 0,0
16.02.2018 05:00:00 0,1 -0,9 - - 4 2 - - W 1024,3 17 0 0,0
16.02.2018 04:00:00 1,8 0,4 - - 5 3 - - WNW 1023,6 25 0 0,0
16.02.2018 03:00:00 1,7 -0,3 - - 5 3 - - W 1023,3 16 0 0,0
16.02.2018 02:00:00 2,6 0,4 - - 8 4 - - W 1022,4 16 0 0,0
16.02.2018 01:00:00 3,1 0,7 - - 11 6 - - W 1021,9 17 0 0,0
16.02.2018 00:00:00 2,9 0,8 - - 8 4 - - WSW 1021,2 16 - 0,0
15.02.2018 23:00:00 3,2 2,0 - - 5 3 - - WSW 1020,8 12 0 0,0
15.02.2018 22:00:00 3,5 2,1 - - 5 3 - - W 1019,8 14 0 0,0
15.02.2018 21:00:00 3,9 1,5 - - 8 4 - - W 1018,9 19 0 0,0
15.02.2018 20:00:00 4,9 1,8 - - 8 4 - - W 1018,3 30 0 0,0
15.02.2018 19:00:00 6,2 3,3 - - 8 4 - - W 1017,6 16 0 0,0
15.02.2018 18:00:00 6,9 3,7 - - 15 8 - - W 1016,7 17 0 0,0
15.02.2018 17:00:00 7,4 2,6 - - 11 6 - - WSW 1015,7 27 54 0,0
15.02.2018 16:00:00 9,3 2,3 - - 15 8 - - W 1014,5 28 60 0,0
15.02.2018 15:00:00 10,4 1,4 - - 13 7 - - W 1013,5 23 60 0,0
15.02.2018 14:00:00 10,4 1,8 - - 15 8 - - WNW 1012,9 30 60 0,0
15.02.2018 13:00:00 10,2 2,0 - - 13 7 - - WNW 1012,4 29 60 0,0
15.02.2018 12:00:00 10,0 3,8 - - 16 9 - - W 1011,7 35 30 0,0
15.02.2018 11:00:00 9,6 4,7 - - 16 9 - - W 1010,5 27 36 0,0
15.02.2018 10:00:00 9,4 8,0 - - 11 6 - - W 1009,6 11 24 0,0
15.02.2018 09:00:00 7,9 7,3 5,5 6,9 9 5 - - W 1008,2 7 6 0,0
15.02.2018 08:00:00 8,2 7,9 - - 13 7 - - W 1007,0 5 0 0,0
15.02.2018 07:00:00 9,0 8,9 - - 15 8 - - W 1005,8 5 0 0,0
15.02.2018 06:00:00 9,1 9,1 - - 15 8 - - W 1004,8 5 0 0,0
15.02.2018 05:00:00 8,8 8,8 - - 13 7 - - W 1004,2 3,8 0 0,0
15.02.2018 04:00:00 8,9 8,9 - - 13 7 - - W 1003,8 2,4 0 0,0
15.02.2018 03:00:00 8,9 8,9 - - 13 7 - - WSW 1003,1 3,0 0 0,0
15.02.2018 02:00:00 8,6 8,6 - - 15 8 - - WSW 1003,0 5 0 0,0
15.02.2018 01:00:00 7,4 7,4 - - 21 11 - - SW 1002,6 10 0 0,2
15.02.2018 00:00:00 6,8 6,8 - - 18 10 - - SW 1002,7 11 - 0,6
14.02.2018 23:00:00 6,1 6,0 - - 13 7 - - SSW 1003,3 3,3 0 1,4
14.02.2018 22:00:00 5,6 5,4 - - 18 10 - - SSW 1003,4 3,1 0 1,8
14.02.2018 21:00:00 5,3 5,0 - - 16 9 - - S 1004,1 5 0 2,2
14.02.2018 20:00:00 5,0 4,7 - - 16 9 - - S 1004,4 4,2 0 2,8
14.02.2018 19:00:00 4,8 4,5 - - 21 11 - - S 1004,9 5 0 1,4
14.02.2018 18:00:00 4,5 4,0 - - 16 9 - - S 1005,4 3,6 0 0,6
14.02.2018 17:00:00 4,2 3,5 - - 22 12 - - S 1005,7 7 0 0,8
14.02.2018 16:00:00 4,0 3,4 - - 21 11 46 25 S 1006,5 3,1 0 0,8
14.02.2018 15:00:00 4,2 2,9 - - 21 11 - - S 1006,6 8 0 0,6
14.02.2018 14:00:00 4,7 2,0 - - 21 11 48 26 SSW 1007,3 11 0 0,0
14.02.2018 13:00:00 5,8 1,1 - - 26 14 48 26 SSW 1007,5 22 0 0,0
14.02.2018 12:00:00 5,8 1,2 - - 22 12 - - SSW 1007,7 24 0 0,0
14.02.2018 11:00:00 5,9 1,0 - - 22 12 - - SSW 1008,1 21 0 0,0
14.02.2018 10:00:00 5,7 1,0 - - 22 12 - - SSW 1008,2 19 36 -
14.02.2018 09:00:00 2,4 2,4 5,2 7,0 8 4 - - S 1008,3 19 12 0,0
14.02.2018 08:00:00 -1,1 -1,4 - - 5 3 - - E 1008,5 0,5 0 0,0
14.02.2018 07:00:00 -1,4 -1,9 - - 2 1 - - SSW 1008,4 4,8 0 0,0
14.02.2018 06:00:00 0,0 -0,4 - - 5 3 - - W 1008,0 5 0 0,0
14.02.2018 05:00:00 0,8 0,0 - - 2 1 - - SW 1007,8 5 0 0,0
14.02.2018 04:00:00 2,6 1,6 - - 8 4 - - WNW 1007,9 10 0 0,0
14.02.2018 03:00:00 3,0 2,1 - - 13 7 - - NNW 1007,7 10 0 0,0
14.02.2018 02:00:00 3,4 3,0 - - 11 6 - - NW 1007,2 3,8 0 0,0
14.02.2018 01:00:00 3,9 3,5 - - 9 5 - - NW 1006,4 6 0 0,0
14.02.2018 00:00:00 4,3 4,0 - - 5 3 - - N 1005,6 7 - 0,0
13.02.2018 23:00:00 4,2 4,0 - - 8 4 - - N 1005,0 8 0 0,0
13.02.2018 22:00:00 4,4 4,0 - - 8 4 - - N 1004,2 9 0 0,0
13.02.2018 21:00:00 4,6 4,3 - - 4 2 - - ENE 1003,0 7 0 0,0
13.02.2018 20:00:00 4,5 4,1 - - 5 3 - - ENE 1002,0 9 0 0,0
13.02.2018 19:00:00 4,6 4,2 - - 4 2 - - SSE 1001,1 9 0 0,0
13.02.2018 18:00:00 4,5 4,2 - - 16 9 - - SSE 1000,2 10 0 0,2
13.02.2018 17:00:00 4,0 3,6 - - 22 12 46 25 S 999,9 6 0 0,4
13.02.2018 16:00:00 3,3 2,8 - - 21 11 - - S 999,9 4,2 0 0,6
13.02.2018 15:00:00 3,5 2,7 - - 21 11 46 25 S 999,6 8 0 0,6
13.02.2018 14:00:00 3,5 2,3 - - 24 13 63 34 S 999,8 10 0 0,2

tt = temperature
td = dewpoint
tt -20cm = temperature -20cm
tt -100cm = temperature -100cm
ff = wind speed
fx = gusts
dd = wind direction
ppp = reduced air pressure
vv = visibility
sd = sunshine duration
rr = precipitation

Next stations